DW7816 Weather Reports


time (UTC)temp
F
wind
direction
speed
knots
gust
knots
rain 1hr
in
rain 24hr
in
rain mn
in
humidity
%
barometer
mb
20260901080909 68 231 0.0 0.0 0.00 0.00 0.00 93 1016.0
20260901074801 69 231 0.0 0.0 0.00 0.00 0.00 93 1016.0
20260901071524 69 231 0.0 0.0 0.00 0.00 0.00 92 1015.9
20260901070532 69 231 0.0 0.0 0.00 0.00 0.00 91 1015.9
20260901063248 70 231 0.0 0.0 0.00 0.00 0.00 91 1016.1
20260901062214 70 231 0.0 0.0 0.00 0.00 0.00 91 1016.1
20260901060101 70 231 0.0 0.0 0.00 0.00 0.00 91 1015.9
20260901055036 70 231 0.0 0.0 0.00 0.00 0.00 90 1015.9
20260901054058 70 231 0.0 0.0 0.00 0.00 0.00 90 1015.9
20260901053117 70 231 0.0 0.0 0.00 0.00 0.00 90 1015.9
20260901052051 71 231 0.0 0.0 0.00 0.00 0.00 90 1015.8
20260901051112 71 231 0.0 0.0 0.00 0.00 0.00 90 1015.7
20260901050045 71 231 0.0 0.0 0.00 0.00 0.00 90 1015.7
20260901045051 71 231 0.0 0.0 0.00 0.00 0.00 90 1015.7
20260901044111 71 231 0.0 0.0 0.00 0.00 0.00 90 1015.6
20260901043049 72 231 0.0 0.0 0.00 0.00 0.00 89 1015.6
20260901042104 72 231 0.0 0.0 0.00 0.00 0.00 89 1015.6
20260901041105 72 231 0.0 0.0 0.00 0.00 0.00 88 1015.6
20260901040106 72 231 0.0 0.0 0.00 0.00 0.00 88 1015.6
20260901035113 73 231 0.0 0.0 0.00 0.00 0.00 88 1015.7
20260901034111 73 231 0.0 0.0 0.00 0.00 0.00 88 1015.7
20260901033131 73 231 0.0 0.0 0.00 0.00 0.00 88 1015.7
20260901032117 73 231 0.0 0.0 0.00 0.00 0.00 87 1015.7
20260901031112 74 231 0.0 0.0 0.00 0.00 0.00 88 1015.6
20260901030113 74 231 0.0 0.0 0.00 0.00 0.00 87 1015.5
20260901025055 74 231 0.0 0.0 0.00 0.00 0.00 87 1015.3
20260901024033 74 231 0.0 0.0 0.00 0.00 0.00 88 1015.2
20260901023015 75 231 0.0 0.0 0.00 0.00 0.00 87 1015.1
20260901021950 75 231 0.0 0.0 0.00 0.00 0.00 86 1014.9
20260901021005 75 231 0.0 0.0 0.00 0.00 0.00 86 1014.7
20260901014856 77 231 0.0 0.0 0.00 0.00 0.00 85 1014.5
20260901013913 77 231 0.0 0.0 0.00 0.00 0.00 83 1014.3
20260901011813 79 231 0.0 0.0 0.00 0.00 0.00 81 1014.0
20260901010754 80 231 0.0 0.0 0.00 0.00 0.00 80 1013.9
20260901005726 81 231 0.0 0.0 0.00 0.00 0.00 78 1013.8
20260901004654 83 231 0.0 0.0 0.00 0.00 0.00 75 1013.8
20260901003649 84 231 0.0 0.0 0.00 0.00 0.00 72 1013.7
20260901001455 88 231 0.0 0.0 0.00 0.00 0.00 66 1013.7
20260831235314 91 231 0.0 0.0 0.00 0.00 0.00 59 1013.6
20260831234300 92 231 0.0 0.0 0.00 0.00 0.00 57 1013.6
20260831233249 94 209 0.0 0.0 0.00 0.00 0.00 51 1013.5
20260831230019 96 244 0.0 1.7 0.00 0.00 0.00 50 1013.6
20260831225033 97 311 0.0 1.7 0.00 0.00 0.00 46 1013.6
20260831222845 96 149 0.9 5.2 0.00 0.00 0.00 47 1013.6
20260831221822 96 196 0.0 2.6 0.00 0.00 0.00 43 1013.7
20260831220833 96 148 1.7 5.2 0.00 0.00 0.00 46 1013.8
20260831215813 97 172 0.9 4.3 0.00 0.00 0.00 44 1013.8
20260831214810 97 203 0.0 3.5 0.00 0.00 0.00 43 1013.8
20260831213816 97 195 0.9 4.3 0.00 0.00 0.00 45 1013.9
20260831212814 97 169 0.9 4.3 0.00 0.00 0.00 43 1013.9
20260831211757 97 221 0.9 0.0 0.00 0.00 0.00 42 1014.0
20260831210811 97 219 0.0 0.9 0.00 0.00 0.00 48 1014.0
20260831204704 97 304 0.9 4.3 0.00 0.00 0.00 51 1014.4
20260831202601 97 253 0.0 2.6 0.00 0.00 0.00 47 1014.6
20260831201527 97 123 0.0 5.2 0.00 0.00 0.00 43 1014.6
20260831200547 97 131 0.0 5.2 0.00 0.00 0.00 42 1014.7
20260831195540 97 312 0.9 7.0 0.00 0.00 0.00 48 1014.9
20260831193359 96 68 1.7 5.2 0.00 0.00 0.00 47 1015.0
20260831192405 96 209 0.9 7.0 0.00 0.00 0.00 46 1015.2
20260831191424 96 153 0.9 8.7 0.00 0.00 0.00 45 1015.1
20260831190410 96 314 0.9 8.7 0.00 0.00 0.00 47 1015.3
20260831184222 96 221 0.0 4.3 0.00 0.00 0.00 48 1015.7
20260831183239 95 287 0.0 0.0 0.00 0.00 0.00 49 1015.8
20260831181119 95 271 0.9 3.5 0.00 0.00 0.00 49 1016.1
20260831180105 95 152 0.0 2.6 0.00 0.00 0.00 53 1016.2
20260831175048 95 227 0.0 2.6 0.00 0.00 0.00 56 1016.3
20260831174107 94 286 0.0 4.3 0.00 0.00 0.00 52 1016.4
20260831173058 94 309 0.0 3.5 0.00 0.00 0.00 54 1016.4
20260831172038 93 328 0.9 5.2 0.00 0.00 0.00 56 1016.6
20260831171100 92 244 0.0 4.3 0.00 0.00 0.00 59 1016.8
20260831170052 92 271 0.0 0.0 0.00 0.00 0.00 60 1016.8
20260831165054 91 136 0.0 0.9 0.00 0.00 0.00 61 1017.0
20260831164027 90 206 0.9 5.2 0.00 0.00 0.00 61 1017.0
20260831153929 87 348 0.9 4.3 0.00 0.00 0.00 68 1017.2
20260831152944 87 255 0.9 4.3 0.00 0.00 0.00 65 1017.2
20260831152009 86 300 0.0 4.3 0.00 0.00 0.00 66 1017.2
20260831151016 85 230 0.0 5.2 0.00 0.00 0.00 70 1017.3
20260831150027 85 294 0.9 5.2 0.00 0.00 0.00 67 1017.3
20260831145052 84 200 0.0 4.3 0.00 0.00 0.00 69 1017.2
20260831144036 83 315 0.0 0.9 0.00 0.00 0.00 71 1017.3
20260831143057 82 183 0.9 3.5 0.00 0.00 0.00 73 1017.3
20260831142116 82 267 0.0 5.2 0.00 0.00 0.00 70 1017.3
20260831141056 81 252 0.0 2.6 0.00 0.00 0.00 72 1017.3
20260831140034 80 177 0.0 0.0 0.00 0.00 0.00 75 1017.3
20260831135022 79 138 0.0 0.0 0.00 0.00 0.00 76 1017.2
20260831134003 78 181 0.0 1.7 0.00 0.00 0.00 76 1017.1
20260831132951 76 243 0.0 1.7 0.00 0.00 0.00 78 1017.1
20260831130907 74 186 0.0 2.6 0.00 0.00 0.00 82 1017.0
20260831125904 72 192 0.0 1.7 0.00 0.00 0.00 85 1016.9
20260831124858 70 207 0.0 0.0 0.00 0.00 0.00 88 1016.8
20260831123844 68 207 0.0 0.9 0.00 0.00 0.00 89 1016.7
20260831122827 67 207 0.0 0.0 0.00 0.00 0.00 92 1016.5
20260831121846 66 207 0.0 0.0 0.00 0.00 0.00 92 1016.4
20260831115627 66 180 0.0 0.0 0.00 0.00 0.00 92 1016.1
20260831114645 66 180 0.0 0.0 0.00 0.00 0.00 92 1015.9
20260831113650 65 180 0.0 0.0 0.00 0.00 0.00 92 1015.7
20260831112625 65 180 0.0 0.0 0.00 0.00 0.00 92 1015.7
20260831111623 65 180 0.0 0.0 0.00 0.00 0.00 92 1015.6
20260831110620 65 180 0.0 0.0 0.00 0.00 0.00 92 1015.6
20260831105608 65 180 0.0 0.0 0.00 0.00 0.00 92 1015.4
20260831104624 65 180 0.0 0.0 0.00 0.00 0.00 92 1015.4
20260831103604 65 180 0.0 0.0 0.00 0.00 0.00 92 1015.5
20260831102552 66 180 0.0 0.0 0.00 0.00 0.00 92 1015.5
20260831101549 66 180 0.0 0.0 0.00 0.00 0.00 92 1015.4
20260831100601 66 180 0.0 0.0 0.00 0.00 0.00 91 1015.5
20260831095612 66 180 0.0 0.0 0.00 0.00 0.00 91 1015.5
20260831094543 66 180 0.0 0.0 0.00 0.00 0.00 91 1015.4
20260831092504 66 180 0.0 0.0 0.00 0.00 0.00 91 1015.3
20260831091459 66 180 0.0 0.0 0.00 0.00 0.00 91 1015.3
20260831090440 66 180 0.0 0.0 0.00 0.00 0.00 90 1015.3
20260831085452 67 180 0.0 0.0 0.00 0.00 0.00 90 1015.3
20260831083251 67 180 0.0 0.0 0.00 0.00 0.00 90 1015.3
20260831082229 67 180 0.0 0.0 0.00 0.00 0.00 90 1015.3